• In Deutschland
  • Länderverzeichnis
  • Für 7 Tage
  • Wassertemperatur
  • Satellitenkarten
  • Wetterkarte
  • Widgets
  • user-avatar
    Anmelden

    Stündliche Wetter Innsbruck

    Heute, 26 Mai, Samstag

    Zeit Temperatur Niederschläge Wind Luftdruck Luftfeuchtigkeit
    00:00 +5°C° 0 mm 1 m/S 598 mmHg 92%
    01:00 +6°C° 0 mm 1 m/S 598 mmHg 90%
    02:00 +5°C° 0 mm 1 m/S 598 mmHg 90%
    03:00 +5°C° 0 mm 1 m/S 598 mmHg 89%
    04:00 +5°C° 0 mm 1 m/S 598 mmHg 89%
    05:00 +7°C° 0 mm 1 m/S 599 mmHg 84%
    06:00 +9°C° 0 mm 1 m/S 600 mmHg 79%
    07:00 +11°C° 0 mm 1 m/S 601 mmHg 71%
    08:00 +13°C° 0 mm 1 m/S 602 mmHg 62%
    09:00 +14°C° 0 mm 1 m/S 602 mmHg 53%
    10:00 +16°C° 0 mm 1 m/S 603 mmHg 43%
    11:00 +18°C° 0 mm 1 m/S 603 mmHg 42%
    12:00 +19°C° 0 mm 1 m/S 604 mmHg 40%
    13:00 +19°C° 0 mm 1 m/S 604 mmHg 39%
    14:00 +19°C° 0,2 mm 1 m/S 603 mmHg 41%
    15:00 +17°C° 0,2 mm 2 m/S 603 mmHg 44%
    16:00 +17°C° 0,2 mm 2 m/S 603 mmHg 47%
    17:00 +15°C° 0,6 mm 1 m/S 602 mmHg 58%
    18:00 +14°C° 0,6 mm 1 m/S 602 mmHg 69%
    19:00 +12°C° 0,6 mm 1 m/S 601 mmHg 80%
    20:00 +11°C° 0,6 mm 1 m/S 601 mmHg 84%
    21:00 +9°C° 0,6 mm 1 m/S 600 mmHg 87%
    22:00 +8°C° 0,6 mm 1 m/S 600 mmHg 90%
    23:00 +7°C° 0,1 mm 1 m/S 600 mmHg 89%

    Morgen, 27 Mai, Sonntag

    Zeit Temperatur Niederschläge Wind Luftdruck Luftfeuchtigkeit
    00:00 +7°C° 0,1 mm 1 m/S 600 mmHg 89%
    01:00 +7°C° 0,1 mm 1 m/S 599 mmHg 88%
    02:00 +7°C° 0 mm 1 m/S 599 mmHg 88%
    03:00 +7°C° 0 mm 1 m/S 599 mmHg 87%
    04:00 +7°C° 0 mm 1 m/S 599 mmHg 86%
    05:00 +8°C° 0 mm 1 m/S 599 mmHg 82%
    06:00 +10°C° 0 mm 1 m/S 600 mmHg 78%
    07:00 +11°C° 0 mm 1 m/S 601 mmHg 74%
    08:00 +13°C° 0,1 mm 1 m/S 602 mmHg 66%
    09:00 +13°C° 0,1 mm 0 m/S 602 mmHg 57%
    10:00 +15°C° 0,1 mm 0 m/S 603 mmHg 49%
    11:00 +16°C° 0,2 mm 0 m/S 603 mmHg 46%
    12:00 +18°C° 0,2 mm 1 m/S 603 mmHg 44%
    13:00 +19°C° 0,2 mm 1 m/S 603 mmHg 41%
    14:00 +19°C° 0,4 mm 1 m/S 603 mmHg 43%
    15:00 +18°C° 0,4 mm 1 m/S 603 mmHg 45%
    16:00 +18°C° 0,4 mm 1 m/S 602 mmHg 47%
    17:00 +16°C° 0,8 mm 1 m/S 602 mmHg 58%
    18:00 +14°C° 0,8 mm 1 m/S 601 mmHg 68%
    19:00 +13°C° 0,8 mm 1 m/S 600 mmHg 79%
    20:00 +11°C° 0,4 mm 1 m/S 600 mmHg 81%
    21:00 +10°C° 0,4 mm 1 m/S 600 mmHg 83%
    22:00 +9°C° 0,4 mm 1 m/S 599 mmHg 85%
    23:00 +8°C° 0 mm 1 m/S 599 mmHg 85%

    übermorgen, 28 Mai, Montag

    Zeit Temperatur Niederschläge Wind Luftdruck Luftfeuchtigkeit
    00:00 +7°C° 0 mm 2 m/S 599 mmHg 85%
    01:00 +6°C° 0 mm 2 m/S 599 mmHg 85%
    02:00 +6°C° 0 mm 2 m/S 598 mmHg 84%
    03:00 +6°C° 0 mm 2 m/S 598 mmHg 83%
    04:00 +6°C° 0 mm 2 m/S 598 mmHg 83%
    05:00 +7°C° 0 mm 2 m/S 599 mmHg 78%
    06:00 +10°C° 0 mm 1 m/S 600 mmHg 73%
    07:00 +12°C° 0 mm 1 m/S 601 mmHg 67%
    08:00 +14°C° 0 mm 1 m/S 601 mmHg 59%
    09:00 +16°C° 0 mm 2 m/S 602 mmHg 51%
    10:00 +18°C° 0 mm 2 m/S 603 mmHg 42%
    11:00 +18°C° 0 mm 2 m/S 603 mmHg 41%
    12:00 +19°C° 0 mm 2 m/S 603 mmHg 39%
    13:00 +20°C° 0 mm 2 m/S 603 mmHg 37%
    14:00 +19°C° 0,3 mm 2 m/S 603 mmHg 42%
    15:00 +18°C° 0,3 mm 2 m/S 602 mmHg 47%
    16:00 +17°C° 0,3 mm 2 m/S 601 mmHg 51%
    17:00 +16°C° 1,1 mm 2 m/S 601 mmHg 60%
    18:00 +15°C° 1,1 mm 2 m/S 600 mmHg 69%
    19:00 +13°C° 1,1 mm 1 m/S 600 mmHg 78%
    20:00 +12°C° 0,3 mm 2 m/S 599 mmHg 82%
    21:00 +10°C° 0,3 mm 2 m/S 599 mmHg 86%
    22:00 +8°C° 0,3 mm 2 m/S 598 mmHg 90%
    23:00 +8°C° 0 mm 2 m/S 598 mmHg 90%

    29 Mai, Dienstag

    Zeit Temperatur Niederschläge Wind Luftdruck Luftfeuchtigkeit
    00:00 +7°C° 0 mm 2 m/S 598 mmHg 91%
    01:00 +7°C° 0 mm 2 m/S 598 mmHg 91%
    02:00 +7°C° 0 mm 2 m/S 598 mmHg 91%
    03:00 +6°C° 0 mm 2 m/S 598 mmHg 90%
    04:00 +6°C° 0 mm 2 m/S 597 mmHg 89%
    05:00 +8°C° 0 mm 2 m/S 598 mmHg 84%
    06:00 +9°C° 0 mm 2 m/S 598 mmHg 79%
    07:00 +10°C° 0 mm 2 m/S 599 mmHg 74%
    08:00 +13°C° 0 mm 2 m/S 600 mmHg 65%
    09:00 +15°C° 0 mm 2 m/S 601 mmHg 57%
    10:00 +17°C° 0 mm 2 m/S 601 mmHg 48%
    11:00 +17°C° 0,2 mm 2 m/S 601 mmHg 48%
    12:00 +18°C° 0,2 mm 2 m/S 601 mmHg 48%
    13:00 +18°C° 0,2 mm 2 m/S 601 mmHg 48%
    14:00 +18°C° 1 mm 2 m/S 600 mmHg 53%
    15:00 +17°C° 1 mm 2 m/S 600 mmHg 58%
    16:00 +16°C° 1 mm 2 m/S 599 mmHg 63%
    17:00 +15°C° 1,8 mm 2 m/S 599 mmHg 71%
    18:00 +14°C° 1,8 mm 2 m/S 598 mmHg 78%
    19:00 +12°C° 1,8 mm 1 m/S 598 mmHg 86%
    20:00 +11°C° 1,1 mm 1 m/S 597 mmHg 89%
    21:00 +9°C° 1,1 mm 2 m/S 597 mmHg 91%
    22:00 +8°C° 1,1 mm 2 m/S 597 mmHg 94%
    23:00 +8°C° 0,2 mm 2 m/S 597 mmHg 94%

    30 Mai, Mittwoch

    Zeit Temperatur Niederschläge Wind Luftdruck Luftfeuchtigkeit
    00:00 +7°C° 0,2 mm 2 m/S 596 mmHg 94%
    01:00 +7°C° 0,2 mm 2 m/S 596 mmHg 94%
    02:00 +6°C° 0,1 mm 2 m/S 596 mmHg 94%
    03:00 +6°C° 0,1 mm 2 m/S 596 mmHg 94%
    04:00 +6°C° 0,1 mm 2 m/S 595 mmHg 93%
    05:00 +7°C° 0 mm 2 m/S 596 mmHg 88%
    06:00 +10°C° 0 mm 1 m/S 597 mmHg 83%
    07:00 +11°C° 0 mm 1 m/S 597 mmHg 78%
    08:00 +13°C° 0 mm 1 m/S 598 mmHg 67%
    09:00 +15°C° 0 mm 1 m/S 599 mmHg 56%
    10:00 +18°C° 0 mm 1 m/S 600 mmHg 45%
    11:00 +18°C° 0,1 mm 2 m/S 600 mmHg 44%
    12:00 +18°C° 0,1 mm 2 m/S 600 mmHg 44%
    13:00 +19°C° 0,1 mm 2 m/S 600 mmHg 43%
    14:00 +18°C° 1,2 mm 2 m/S 599 mmHg 50%
    15:00 +17°C° 1,2 mm 2 m/S 599 mmHg 56%
    16:00 +17°C° 1,2 mm 2 m/S 598 mmHg 63%
    17:00 +15°C° 2,3 mm 2 m/S 598 mmHg 70%
    18:00 +14°C° 2,3 mm 2 m/S 597 mmHg 76%
    19:00 +13°C° 2,3 mm 1 m/S 597 mmHg 83%
    20:00 +12°C° 0,7 mm 1 m/S 597 mmHg 86%
    21:00 +10°C° 0,7 mm 1 m/S 596 mmHg 89%
    22:00 +8°C° 0,7 mm 2 m/S 596 mmHg 92%
    23:00 +8°C° 0,3 mm 2 m/S 596 mmHg 92%

    31 Mai, Donnerstag

    Zeit Temperatur Niederschläge Wind Luftdruck Luftfeuchtigkeit
    00:00 +7°C° 0,3 mm 2 m/S 596 mmHg 93%
    01:00 +7°C° 0,3 mm 2 m/S 595 mmHg 93%
    02:00 +6°C° 0,4 mm 2 m/S 595 mmHg 93%
    03:00 +7°C° 0,4 mm 1 m/S 595 mmHg 92%
    04:00 +6°C° 0,4 mm 1 m/S 595 mmHg 92%
    05:00 +8°C° 0,2 mm 1 m/S 596 mmHg 88%
    06:00 +10°C° 0,2 mm 1 m/S 597 mmHg 83%
    07:00 +11°C° 0,2 mm 1 m/S 597 mmHg 79%
    08:00 +13°C° 0,4 mm 1 m/S 598 mmHg 74%
    09:00 +14°C° 0,4 mm 1 m/S 598 mmHg 69%
    10:00 +16°C° 0,4 mm 1 m/S 599 mmHg 63%
    11:00 +16°C° 0,9 mm 1 m/S 599 mmHg 62%
    12:00 +18°C° 0,9 mm 1 m/S 599 mmHg 60%
    13:00 +18°C° 0,9 mm 1 m/S 599 mmHg 59%
    14:00 +18°C° 1,2 mm 1 m/S 599 mmHg 61%
    15:00 +16°C° 1,2 mm 1 m/S 599 mmHg 63%
    16:00 +16°C° 1,2 mm 1 m/S 598 mmHg 66%
    17:00 +15°C° 0,7 mm 1 m/S 598 mmHg 71%
    18:00 +14°C° 0,7 mm 1 m/S 598 mmHg 76%
    19:00 +13°C° 0,7 mm 1 m/S 598 mmHg 81%
    20:00 +12°C° 0,8 mm 1 m/S 597 mmHg 84%
    21:00 +11°C° 0,8 mm 1 m/S 597 mmHg 87%
    22:00 +8°C° 0,8 mm 2 m/S 597 mmHg 90%
    23:00 +9°C° 1 mm 1 m/S 597 mmHg 91%
    Mehr zeigen